Weather in Rudnitsky

Russia / Bryansk Oblast     52°56′44″N   32°12′15″E
temp.,
°C
wind,
m/s
gust,
m/s
humid.,
%
clouds,
%
prec.,
mm/h
press.,
hPa
HPBL,
m
22 may, sun
sun2200:00+10ene3499100 4.4 1000118
03:00+10wnw2299100 7.3 998145
06:00+8w3797100 2.2 997433
09:00+8ne5997100 5.9 998539
12:00+8ne81291100 0.8 1001907
15:00+11ene697597 0.9 10031152
18:00+12nne677171 0.4 10041113
21:00+8n348116 0.4 100654
23 may, mon
mon2300:00+5nne348562 0.1 100860
03:00+3nne347834 0.1 100954
06:00+4nne34785 0.0 101089
09:00+10n35624 0.0 1010571
12:00+12n56465 0.0 10102107
15:00+14nnw664521 0.0 10092256
18:00+12nnw57575 0.0 10101908
21:00+7wnw45695 0.0 101155
24 may, tue
tue2400:00+6nw47895 0.0 1011110
03:00+4nw36934 0.0 1012109
06:00+5nw36905 0.0 1013135
09:00+11wnw4573100 0.0 1013364
12:00+15wnw575733 0.0 10131394
15:00+16wnw4757100 0.0 10121968
18:00+14wnw3873100 0.2 1012282
21:00+13wsw4872100 0.2 1013158
25 may, wed
wed2500:00+12w4107413 0.0 1013216
03:00+8w410845 0.0 1014162
06:00+8w39885 0.0 1014183
09:00+14w57704 0.0 1014494
12:00+18wnw575775 0.0 10141650
15:00+19nw4651100 0.1 10132055
18:00+17nnw0167100 0.1 101395
21:00+12e468732 0.1 101384
26 may, thu
thu2600:00+12se5108790 0.0 1013199
03:00+11se59947 0.0 1012188
06:00+11sse598994 0.0 1009239
09:00+16s7118299 0.1 1006622
12:00+12s91494100 0.8 1004728
15:00+15w10148781 3.4 10041047
18:00+15w6117767 0.1 10041232
21:00+12w71390100 1.1 1005471